Regional Weather Roundup
Issued by NWS

Home | Current Version | Previous Version | Graphics & Text | Print | Product List | Glossary On
Versions: 1 2 3 4 5 6 7 8 9 10 11 12 13 14 15 16 17 18 19 20 21 22 23 24 25 26 27 28 29 30 31 32 33 34 35 36 37 38 39 40 41 42 43 44 45 46 47 48 49 50
000
ASUS43 KLOT 241906
RWRIL

ILLINOIS REGIONAL WEATHER ROUNDUP
NATIONAL WEATHER SERVICE CHICAGO/ROMEOVILLE IL
200 PM CDT FRI OCT 24 2014

NOTE: "FAIR" INDICATES FEW OR NO CLOUDS BELOW 12,000 FEET WITH NO
SIGNIFICANT WEATHER AND/OR OBSTRUCTIONS TO VISIBILITY.

* THESE STATIONS ARE NOT UNDER NWS QUALITY CONTROL. THEY ALSO MAY NOT
  REPORT WEATHER SUCH AS PRECIPITATION OR FOG.

ILZ001-002-007-009-015-016-024-242000-
NORTHWEST ILLINOIS

CITY           SKY/WX    TMP DP  RH WIND       PRES   REMARKS
MOLINE         SUNNY     67  50  54 S10       29.97F
STERLING*      MOSUNNY   61  54  77 SW5       30.01F
SAVANNA*       MOSUNNY   60  53  79 SE7       29.99F
$$

ILZ003-004-008-010-011-017-018-242000-
NORTH CENTRAL ILLINOIS

CITY           SKY/WX    TMP DP  RH WIND       PRES   REMARKS
ROCKFORD       CLOUDY    56  52  86 SW5       30.03F
FREEPORT*      MOSUNNY   59  51  75 SW9       30.02F
ROCHELLE*      MOSUNNY   64  52  65 SW8       30.01F
DE KALB*       SUNNY     63  50  61 SW6       30.00F
PERU*          SUNNY     66  52  61 W7        30.01F
$$

ILZ005-006-012>014-019>023-242000-
NORTHEAST ILLINOIS

CITY           SKY/WX    TMP DP  RH WIND       PRES   REMARKS
CHICAGO-OHARE  MOSUNNY   64  48  56 VRB5      29.99F
CHICAGO-MIDWAY PTSUNNY   66  51  58 VRB7      29.99F
AURORA         SUNNY     66  49  54 W8        30.00F
LANSING*       PTSUNNY   64  51  64 W8        30.00F
JOLIET*        MOSUNNY   65  49  57 SW5       30.00F
WAUKEGAN       MOSUNNY   60  51  72 E8        29.98F
DUPAGE AIRPORT SUNNY     67  50  54 VRB5      29.99F
KANKAKEE*      PTSUNNY   67  50  54 W9G16     30.01F
WHEELING       MOSUNNY   67  49  52 W5        30.00F
MORRIS*        SUNNY     67  53  60 SW6       29.99F
ROMEOVILLE*    MOSUNNY   65  49  55 SW6       29.99F
NORTHERLY ISL    N/A     58  51  78 E6          N/A
$$

LMZ740>746-242000-
SOUTHERN LAKE MICHIGAN

STATION/POSITION SKY/WX   TEMP    WIND        PRES    VSBY  WAVE
                          AIR SEA DIR/SP/G                  HT/PER
                          (F)     (DEG/KT/KT) (MB)    (MI)  (FT/S)
SOUTHERN BUOY              52 54  230/  8/ 10 1016.3F         1
WAUKEGAN HARBOR            55     110/  6/  7   N/A
HARRISON CRIB              56     110/  6/  8   N/A
BURNHAM HARBOR             57     100/  5/  7   N/A
CALUMET HARBOR             64     250/  3/ 10 1014.6F
MICHIGAN CITY              58     330/  4/  5   N/A
$$

ILZ025>027-034>036-040-047-049-050-058-095>099-242000-
WEST-CENTRAL ILLINOIS

CITY           SKY/WX    TMP DP  RH WIND       PRES   REMARKS
QUINCY         PTSUNNY   60  56  86 S9        30.03F
GALESBURG*     MOSUNNY   62  53  73 S10       30.01F
MACOMB*        SUNNY     65  56  73 S9        30.04F
JACKSONVILLE*  SUNNY     70  51  51 SW8       30.04F
PITTSFIELD*    SUNNY     70  56  60 S8        30.04F
$$

ILZ028>032-037-038-041>044-048-051>054-059>061-242000-
CENTRAL ILLINOIS

CITY           SKY/WX    TMP DP  RH WIND       PRES   REMARKS
PONTIAC        SUNNY     70  47  44 SW6       30.01F
BLOOMINGTON    SUNNY     68  50  52 SW7       30.03F
DECATUR        MOSUNNY   64  56  75 SW12      30.06F
PEORIA         MOSUNNY   62  54  74 SW9       30.03F
LACON*         SUNNY     66  49  54 SW8       30.00F
LINCOLN*       MOSUNNY   67  55  66 SW6       30.02F
SPRINGFIELD    MOSUNNY   64  56  75 VRB3      30.05F
TAYLORVILLE    CLOUDY    59  54  82 SW5       30.06F
$$

ILZ033-039-045-046-055>057-062-063-242000-
EAST-CENTRAL ILLINOIS

CITY           SKY/WX    TMP DP  RH WIND       PRES   REMARKS
CHAMPAIGN      PTSUNNY   67  53  61 MISG      30.03F
DANVILLE*      MOSUNNY   65  53  63 SW7       30.01F
RANTOUL*       CLOUDY    69  53  57 W6        30.02F
MATTOON        PTSUNNY   67  54  63 VRB7      30.04F
PARIS*         MOSUNNY   68  54  60 SW5       30.05F
$$

ILZ079-100>102-242000-
SOUTHWEST ILLINOIS

CITY           SKY/WX    TMP DP  RH WIND       PRES   REMARKS
ALTON          MOSUNNY   68  54  60 W6        30.06F
CAHOKIA*       MOSUNNY   71  54  54 SW5       30.06F
SPARTA*        MOSUNNY   67  56  68 CALM      30.09S
$$

ILZ064>066-069>071-074>076-080>082-084>086-088>090-092>094-242000-
SOUTH-CENTRAL ILLINOIS

CITY           SKY/WX    TMP DP  RH WIND       PRES   REMARKS
CARBONDALE     MOSUNNY   67  55  65 W6        30.08F
CAIRO*         MOSUNNY   73  54  52 W3        30.08F
EFFINGHAM*     PTSUNNY   69  52  55 W9        30.06F
MARION         PTSUNNY   68  55  64 W8        30.09F
MT. VERNON     PTSUNNY   70  55  60 SW12      30.08F
CENTRALIA*     PTSUNNY   66  54  64 SW5       30.07F
SALEM*         PTSUNNY   69  58  68 W5        30.08F
METROPOLIS*    SUNNY     69  56  63 W6        30.08F
$$

ILZ067-068-072-073-078-083-087-091-242000-
SOUTHEAST ILLINOIS

CITY           SKY/WX    TMP DP  RH WIND       PRES   REMARKS
LAWRENCEVILLE  MOSUNNY   69  52  54 W6        30.06F
FLORA*         SUNNY     69  54  58 W8        30.06F
FAIRFIELD*     MOSUNNY   69  55  59 SW5       30.06S
HARRISBURG*    PTSUNNY   69  55  62 SW3       30.08F
ROBINSON*      SUNNY     72  54  52 SW9       30.06F
CARMI*         MOSUNNY   72  56  57 W6        30.06F
$$

ABBREVIATIONS USED IN REMARKS
   TC - TEMPERATURE IN CELSIUS
  WCI - WIND CHILL INDEX
   HX - HEAT INDEX
  VSB - VISIBILITY
$$




USA.gov is the U.S. government's official web portal to all federal, state and local government web resources and services.